Weather Roundup
Issued by NWS Chicago, IL

Home | Current Version | Previous Version | Text Only | Print | Product List | Glossary On
Versions: 1 2 3 4 5 6 7 8 9 10 11 12 13 14 15 16 17 18 19 20 21 22 23 24 25 26 27 28 29 30 31 32 33 34 35 36 37 38 39 40 41 42 43 44 45 46 47 48 49 50
000
NZUS59 KLOT 121508
HRRLOT

CHICAGO AREA WEATHER ROUNDUP
NATIONAL WEATHER SERVICE CHICAGO/ROMEOVILLE IL
900 AM CST FRI FEB 12 2016

NOTE: "FAIR" INDICATES FEW OR NO CLOUDS BELOW 12,000 FEET WITH NO
SIGNIFICANT WEATHER AND/OR OBSTRUCTIONS TO VISIBILITY.

* THESE STATIONS ARE NOT UNDER NWS QUALITY CONTROL. THEY ALSO MAY NOT
  REPORT WEATHER SUCH AS PRECIPITATION OR FOG.

ILZ005-006-012>014-019>023-121600-
NORTHEAST ILLINOIS

CITY           SKY/WX    TMP DP  RH WIND       PRES   REMARKS
OHARE          FLURRIES  19  10  68 W15G25    30.14R WCI   5
MIDWAY         CLOUDY    21   9  59 W15       30.15S WCI   8
AURORA         LGT SNOW  19  14  81 NW18      30.17R VSB 3/4 WCI   4
LANSING*       CLOUDY    21  10  62 W9        30.15S WCI  11
JOLIET*        LGT SNOW  22  15  74 W12       30.18R WCI  11
WAUKEGAN       CLOUDY    18   8  65 W13G18    30.13R WCI   5
DUPAGE AIRPORT LGT SNOW  18  10  71 NW16G24   30.15R WCI   3
WHEELING       FLURRIES  19  10  68 NW15G23   30.15R WCI   5
KANKAKEE*      CLOUDY    23  16  74 W8G18     30.18S WCI  14
MORRIS*        FLURRIES  22  15  75 W16G23    30.16R WCI   8
LEWIS AIRPORT* SNOW      20  14  77 W17       30.16S VSB 1/2 WCI   5
$$

WIZ051-052-058>065-066-070>072-121600-
SOUTHEAST WISCONSIN

CITY           SKY/WX    TMP DP  RH WIND       PRES   REMARKS
MILWAUKEE      PTSUNNY   17   4  56 NW21      30.13S WCI   0
KENOSHA*       CLOUDY    17   6  62 NW17G23   30.13R WCI   1
RACINE*        CLOUDY    17   4  56 NW10G20   30.14R WCI   5
BURLINGTON     CLOUDY    15   6  67 NW15      30.14R WCI  -1
WAUKESHA       CLOUDY    12   5  73 NW20      30.13S WCI  -6
WEST BEND      CLOUDY    14   5  67 NW15G23   30.11R WCI  -1
$$

INZ001>003-010>013-019-020-121600-
NORTHWEST INDIANA

CITY           SKY/WX    TMP DP  RH WIND       PRES   REMARKS
GARY*          CLOUDY    23   9  54 W14G25    30.15F WCI  11
MICHIGAN CITY* NOT AVBL
RENSSELAER*    NOT AVBL
VALPARAISO     CLOUDY    21  11  65 W14       30.13F WCI   8
$$

LMZ740>746-121600-
SOUTHERN LAKE MICHIGAN

STATION/POSITION TIME  SKY/WX   TEMP WIND        PRES    VSBY
                                AIR  DIR/SP/G
                 (UTC)          (F)  (DEG/KT/KT) (MB)    (MI)
HARRISON CRIB    1400            22  270/ 20/ 23   N/A
BURNHAM HARBOR   1500            21  310/ 11/ 14   N/A
CALUMET HARBOR   1400            21  250/  8/ 11 1019.9S
BURNS HARBOR     1400            22  260/ 16/ 20 1021.0F
MICHIGAN CITY    1400            22  230/ 19/ 21   N/A
$$

ABBREVIATIONS USED IN REMARKS
   TC - TEMPERATURE IN CELSIUS
  WCI - WIND CHILL INDEX
   HX - HEAT INDEX
  VSB - VISIBILITY
$$



USA.gov is the U.S. government's official web portal to all federal, state and local government web resources and services.